CHH430 ZJHK-KSEA

Flight info

Callsign CHH430
Flight time N/A
Altitude 38000
Route SAMAS9XD SAMAS G221 BIGRO V20 UDUTI V19 NLG W509 KEVAR W501 IDUMA A461 SHL G471 PLT A599 JTN W116 PK G455 SURAK A326 OMLIB W209 AGAVO/N0494F380 Y644 RILRO/K0904F380 DCT HAMUN L744 KICHA B356 TD T575 NALAM P175 NAMUL T564 GITRU B327 IRKAN G583 BESAT/N0490F380 G583 MARCC DCT MKLUK DCT KOWOK DCT WORRI DCT SHUYA DCT KODNE DCT MOCHO DCT HMPTN B757 KATCH DCT FINGS DCT TOU MARNR8
Aircraft B789/H-SDE1E2E3FGHIJ2J3J4J5M1RWXY/LB1D1

Departure

Time 2026-04-30 14:02
Airport Haikou Meilan International Airport (ZJHK)

Arrival

Time N/A
Airport Seattle–Tacoma International Airport (KSEA)
Time Latitude Longitude Altitude Speed Heading
2026-04-30 14:00 19.95270 110.44824 92 ft 8 kts 359°
2026-04-30 14:00 19.95347 110.44863 92 ft 13 kts 51°
2026-04-30 14:01 19.95371 110.44955 92 ft 3 kts 84°
2026-04-30 14:01 19.95371 110.44958 92 ft 1 kts 84°
2026-04-30 14:01 19.95373 110.45033 92 ft 29 kts 90°
2026-04-30 14:01 19.95373 110.45467 92 ft 86 kts 89°
2026-04-30 14:02 19.95376 110.46291 92 ft 137 kts 90°
2026-04-30 14:02 19.95385 110.47485 94 ft 181 kts 89°
2026-04-30 14:02 19.95379 110.48847 477 ft 184 kts 91°
2026-04-30 14:02 19.95417 110.50187 1002 ft 180 kts 79°
2026-04-30 14:03 19.95917 110.51382 1320 ft 188 kts 45°
2026-04-30 14:03 19.97107 110.52062 1489 ft 202 kts 14°
2026-04-30 14:03 19.98452 110.52525 1934 ft 205 kts 24°
2026-04-30 14:03 19.99722 110.53203 2425 ft 206 kts 27°
2026-04-30 14:04 20.00990 110.53915 2904 ft 207 kts 28°
2026-04-30 14:04 20.02245 110.54666 3366 ft 209 kts 30°
2026-04-30 14:04 20.03489 110.55430 3814 ft 210 kts 30°
2026-04-30 14:04 20.04756 110.56221 4258 ft 212 kts 30°
2026-04-30 14:05 20.06022 110.57019 4746 ft 209 kts 30°
2026-04-30 14:05 20.07226 110.57784 5355 ft 201 kts 30°
2026-04-30 14:05 20.08430 110.58543 5719 ft 203 kts 30°
2026-04-30 14:05 20.09675 110.59280 6011 ft 209 kts 21°
2026-04-30 14:06 20.11170 110.59444 6031 ft 229 kts 352°
2026-04-30 14:06 20.14416 110.58624 6585 ft 245 kts 350°
2026-04-30 14:07 20.17904 110.57757 7103 ft 275 kts 349°
2026-04-30 14:07 20.19811 110.57278 7400 ft 288 kts 349°
2026-04-30 14:07 20.21789 110.56776 7999 ft 291 kts 349°
2026-04-30 14:08 20.25803 110.55762 8965 ft 305 kts 349°
2026-04-30 14:08 20.27873 110.55238 9485 ft 310 kts 349°
2026-04-30 14:08 20.32110 110.54165 10555 ft 317 kts 349°
2026-04-30 14:09 20.34254 110.53622 11051 ft 321 kts 349°
2026-04-30 14:09 20.36453 110.53065 11543 ft 325 kts 349°
2026-04-30 14:09 20.40890 110.51940 12523 ft 332 kts 349°
2026-04-30 14:10 20.43146 110.51367 13060 ft 333 kts 349°
2026-04-30 14:10 20.45432 110.50787 13576 ft 335 kts 350°
2026-04-30 14:10 20.47705 110.50427 14017 ft 332 kts
2026-04-30 14:10 20.49937 110.50769 14439 ft 329 kts 21°
2026-04-30 14:11 20.51985 110.51858 14896 ft 325 kts 39°
2026-04-30 14:11 20.53588 110.53494 15326 ft 323 kts 51°
2026-04-30 14:11 20.55091 110.55319 15749 ft 325 kts 50°
2026-04-30 14:11 20.56594 110.57115 16173 ft 327 kts 51°
2026-04-30 14:12 20.58090 110.58961 16603 ft 329 kts 51°
2026-04-30 14:12 20.59582 110.60802 17021 ft 330 kts 51°
2026-04-30 14:12 20.61080 110.62663 17427 ft 332 kts 51°
2026-04-30 14:12 20.62094 110.63924 17695 ft 333 kts 51°
2026-04-30 14:13 20.64107 110.66428 18220 ft 336 kts 51°
2026-04-30 14:13 20.65644 110.68343 18612 ft 337 kts 51°
2026-04-30 14:13 20.67177 110.70252 18990 ft 339 kts 51°
2026-04-30 14:13 20.68708 110.72161 19358 ft 341 kts 51°
2026-04-30 14:14 20.70254 110.74089 19720 ft 343 kts 50°
2026-04-30 14:14 20.71811 110.76032 20075 ft 344 kts 50°
2026-04-30 14:14 20.73367 110.77973 20420 ft 346 kts 50°
2026-04-30 14:14 20.74948 110.79947 20761 ft 348 kts 50°
2026-04-30 14:15 20.76504 110.81890 21088 ft 349 kts 50°
2026-04-30 14:15 20.78089 110.83871 21413 ft 351 kts 50°
2026-04-30 14:15 20.79693 110.85876 21733 ft 353 kts 50°
2026-04-30 14:15 20.81285 110.87866 22042 ft 354 kts 50°
2026-04-30 14:16 20.82891 110.89874 22337 ft 356 kts 50°
2026-04-30 14:16 20.84501 110.91888 22608 ft 358 kts 50°
2026-04-30 14:16 20.86114 110.93906 22874 ft 361 kts 50°
2026-04-30 14:16 20.87775 110.95987 23146 ft 363 kts 50°
2026-04-30 14:17 20.89411 110.98035 23407 ft 365 kts 50°
2026-04-30 14:17 20.91070 111.00114 23664 ft 367 kts 50°
2026-04-30 14:17 20.92736 111.02203 23915 ft 369 kts 50°
2026-04-30 14:17 20.94395 111.04282 24158 ft 371 kts 50°
2026-04-30 14:18 20.96065 111.06371 24396 ft 373 kts 49°
2026-04-30 14:18 20.97776 111.08497 24625 ft 375 kts 49°
2026-04-30 14:18 21.01200 111.12759 25061 ft 380 kts 49°
2026-04-30 14:19 21.04655 111.17062 25530 ft 383 kts 49°
2026-04-30 14:19 21.06401 111.19237 25756 ft 384 kts 49°
2026-04-30 14:19 21.08153 111.21422 25973 ft 386 kts 49°
2026-04-30 14:20 21.09897 111.23597 26186 ft 387 kts 49°
2026-04-30 14:20 21.11667 111.25805 26401 ft 389 kts 49°
2026-04-30 14:20 21.15201 111.30216 26833 ft 391 kts 49°
2026-04-30 14:21 21.16975 111.32432 27047 ft 393 kts 49°
2026-04-30 14:21 21.18739 111.34635 27253 ft 394 kts 49°
2026-04-30 14:21 21.22331 111.39127 27658 ft 396 kts 49°
2026-04-30 14:22 21.24106 111.41347 27851 ft 397 kts 49°
2026-04-30 14:22 21.27735 111.45891 28236 ft 399 kts 49°
2026-04-30 14:22 21.29542 111.48155 28421 ft 400 kts 49°
2026-04-30 14:23 21.33182 111.52717 28783 ft 403 kts 49°
2026-04-30 14:23 21.36814 111.57273 29129 ft 405 kts 49°
2026-04-30 14:24 21.40502 111.61904 29464 ft 407 kts 49°
2026-04-30 14:24 21.42337 111.64209 29627 ft 408 kts 49°
2026-04-30 14:25 21.45032 111.67598 29863 ft 409 kts 49°
2026-04-30 14:25 21.47838 111.71118 30101 ft 410 kts 47°
2026-04-30 14:26 21.52019 111.75251 30317 ft 412 kts 46°
2026-04-30 14:26 21.53829 111.77637 30433 ft 413 kts 56°
2026-04-30 14:26 21.57353 111.82489 30663 ft 414 kts 41°
2026-04-30 14:27 21.59653 111.84356 30791 ft 414 kts 31°
2026-04-30 14:27 21.62210 111.85728 30915 ft 415 kts 21°
2026-04-30 14:27 21.64995 111.86587 31031 ft 417 kts 11°
2026-04-30 14:28 21.70596 111.88004 31234 ft 418 kts 18°
2026-04-30 14:28 21.73360 111.88977 31364 ft 418 kts 19°
2026-04-30 14:28 21.76125 111.89984 31500 ft 419 kts 19°
2026-04-30 14:28 21.78863 111.91026 31628 ft 419 kts 22°
2026-04-30 14:29 21.83822 111.94202 31811 ft 421 kts 41°
2026-04-30 14:29 21.87019 111.98188 31984 ft 423 kts 58°
2026-04-30 14:30 21.91149 112.07774 32320 ft 426 kts 64°
2026-04-30 14:31 21.93611 112.13600 32551 ft 428 kts 64°
2026-04-30 14:31 21.96069 112.19408 32768 ft 429 kts 64°
2026-04-30 14:31 21.97315 112.22353 32875 ft 430 kts 64°
2026-04-30 14:32 21.99783 112.28188 33080 ft 431 kts 64°
2026-04-30 14:32 22.01033 112.31148 33181 ft 432 kts 64°
2026-04-30 14:33 22.03510 112.37015 33375 ft 433 kts 64°
2026-04-30 14:33 22.06010 112.42944 33563 ft 434 kts 64°
2026-04-30 14:33 22.07254 112.45898 33653 ft 435 kts 64°
2026-04-30 14:34 22.09745 112.51817 33828 ft 436 kts 64°
2026-04-30 14:34 22.11426 112.55814 33948 ft 437 kts 64°
2026-04-30 14:35 22.13925 112.61764 34120 ft 438 kts 64°
2026-04-30 14:35 22.15594 112.65741 34230 ft 439 kts 64°
2026-04-30 14:36 22.18103 112.71727 34395 ft 440 kts 64°
2026-04-30 14:36 22.20622 112.77746 34558 ft 441 kts 64°
2026-04-30 14:37 22.23148 112.83786 34700 ft 443 kts 64°
2026-04-30 14:37 22.25666 112.89814 34804 ft 445 kts 64°
2026-04-30 14:38 22.28216 112.95929 34918 ft 447 kts 65°
2026-04-30 14:38 22.30763 113.02044 35024 ft 449 kts 65°
2026-04-30 14:39 22.33316 113.08179 35143 ft 450 kts 65°
2026-04-30 14:39 22.35869 113.14326 35285 ft 451 kts 65°
2026-04-30 14:40 22.38432 113.20503 35411 ft 452 kts 65°
2026-04-30 14:40 22.39717 113.23601 35473 ft 452 kts 65°
2026-04-30 14:40 22.42287 113.29807 35593 ft 453 kts 65°
2026-04-30 14:41 22.44849 113.36002 35707 ft 454 kts 65°
2026-04-30 14:41 22.47425 113.42238 35816 ft 455 kts 65°
2026-04-30 14:42 22.49987 113.48448 35919 ft 455 kts 65°
2026-04-30 14:42 22.52562 113.54697 36018 ft 456 kts 65°
2026-04-30 14:43 22.54989 113.61019 36096 ft 457 kts 66°
2026-04-30 14:43 22.57390 113.67387 36181 ft 458 kts 67°
2026-04-30 14:44 22.59791 113.73752 36261 ft 458 kts 65°
2026-04-30 14:44 22.63113 113.79571 36284 ft 456 kts 49°
2026-04-30 14:45 22.67887 113.84018 36319 ft 455 kts 30°
2026-04-30 14:45 22.73632 113.86877 36351 ft 455 kts 25°
2026-04-30 14:46 22.79322 113.89794 36376 ft 457 kts 25°
2026-04-30 14:46 22.84196 113.92019 36407 ft 457 kts 16°
2026-04-30 14:47 22.88336 113.92825 36431 ft 457 kts
2026-04-30 14:47 22.91490 113.92866 36442 ft 458 kts 356°
2026-04-30 14:47 22.97649 113.91296 36471 ft 460 kts 338°
2026-04-30 14:48 23.03655 113.89037 36489 ft 457 kts 351°
2026-04-30 14:48 23.09952 113.88935 36529 ft 455 kts
2026-04-30 14:49 23.15911 113.90928 36567 ft 453 kts 27°
2026-04-30 14:49 23.21007 113.94929 36611 ft 452 kts 41°
2026-04-30 14:50 23.28291 114.01400 36626 ft 454 kts 38°
2026-04-30 14:51 23.35723 114.07758 36636 ft 457 kts 38°
2026-04-30 14:52 23.43206 114.14148 36645 ft 459 kts 38°
2026-04-30 14:52 23.50785 114.20629 36654 ft 462 kts 38°
2026-04-30 14:53 23.58344 114.27102 36704 ft 464 kts 38°
2026-04-30 14:54 23.68502 114.35667 36801 ft 465 kts 37°
2026-04-30 14:55 23.76245 114.42023 36873 ft 465 kts 37°
2026-04-30 14:56 23.86563 114.50500 36957 ft 466 kts 37°
2026-04-30 14:57 23.94317 114.56884 37013 ft 467 kts 37°
2026-04-30 14:58 24.04605 114.65368 37046 ft 468 kts 37°
2026-04-30 14:58 24.12420 114.71823 37049 ft 470 kts 37°
2026-04-30 15:00 24.25495 114.82604 37057 ft 472 kts 34°
2026-04-30 15:00 24.31381 114.85664 37074 ft 472 kts 16°
2026-04-30 15:01 24.37738 114.87295 37064 ft 472 kts 13°
2026-04-30 15:01 24.47316 114.89690 37068 ft 474 kts 13°
2026-04-30 15:02 24.53768 114.91289 37076 ft 475 kts 13°
2026-04-30 15:03 24.69887 114.95282 37075 ft 477 kts 13°
2026-04-30 15:04 24.86117 114.99259 37074 ft 480 kts 13°
2026-04-30 15:06 25.02394 115.03233 37073 ft 481 kts 12°
2026-04-30 15:07 25.15468 115.06424 37076 ft 483 kts 12°
2026-04-30 15:08 25.28620 115.09605 37073 ft 483 kts
2026-04-30 15:08 25.38599 115.09306 37084 ft 481 kts 345°
2026-04-30 15:09 25.44697 115.06413 37086 ft 480 kts 331°
2026-04-30 15:10 25.56738 114.99938 37074 ft 481 kts 334°
2026-04-30 15:11 25.75575 114.92526 37084 ft 484 kts 359°
2026-04-30 15:12 25.85356 114.94854 37080 ft 486 kts 24°
2026-04-30 15:13 25.91015 114.98902 37088 ft 487 kts 41°
2026-04-30 15:14 26.06912 115.18442 37077 ft 487 kts 47°
2026-04-30 15:17 26.27676 115.43257 37080 ft 488 kts 47°
2026-04-30 15:19 26.46154 115.65448 37085 ft 489 kts 47°
2026-04-30 17:39 41.24803 129.78374 36930 ft 531 kts 31°
2026-04-30 17:42 41.53566 130.09070 36944 ft 531 kts 31°
2026-04-30 17:43 41.67926 130.24525 36945 ft 532 kts 31°
2026-04-30 17:44 41.85144 130.43185 36947 ft 531 kts 31°
2026-04-30 17:47 42.10881 130.71323 36935 ft 533 kts 31°
2026-04-30 17:48 42.30889 130.93408 36939 ft 533 kts 32°
2026-04-30 17:50 42.53795 131.18929 36941 ft 534 kts 32°
2026-04-30 17:52 42.70952 131.38203 36945 ft 535 kts 32°
2026-04-30 17:54 42.96622 131.67308 36934 ft 530 kts 33°
2026-04-30 17:56 43.19012 131.92975 36938 ft 526 kts 34°
2026-04-30 17:58 43.35788 132.12373 37101 ft 527 kts 34°
2026-04-30 17:59 43.46963 132.25369 37225 ft 527 kts 34°
2026-04-30 18:00 43.58151 132.38452 37288 ft 529 kts 34°
2026-04-30 18:00 43.66543 132.48308 37407 ft 528 kts 34°
2026-04-30 18:01 43.72130 132.54887 37426 ft 529 kts 34°
2026-04-30 18:02 43.88915 132.74760 37482 ft 530 kts 35°
2026-04-30 18:04 44.05663 132.94748 37530 ft 531 kts 35°
2026-04-30 18:06 44.28310 133.20607 37604 ft 524 kts 30°
2026-04-30 18:08 44.48819 133.41775 37654 ft 526 kts 30°
2026-04-30 18:10 44.72236 133.66248 37743 ft 526 kts 31°
2026-04-30 18:11 44.83931 133.78567 37864 ft 520 kts 31°
2026-04-30 18:11 44.92531 133.87631 37827 ft 511 kts 29°
2026-04-30 18:13 45.06816 134.01837 37802 ft 497 kts 30°
2026-04-30 18:14 45.20713 134.15771 37770 ft 484 kts 30°
2026-04-30 18:15 45.36837 134.32047 37724 ft 466 kts 30°
2026-04-30 18:16 45.47174 134.42539 37697 ft 451 kts 30°
2026-04-30 18:17 45.52211 134.47670 37672 ft 444 kts 30°
2026-04-30 18:18 45.59737 134.55353 37628 ft 446 kts 30°
2026-04-30 18:18 45.64756 134.60492 37625 ft 447 kts 30°
2026-04-30 18:19 45.69836 134.65706 37522 ft 449 kts 30°
2026-04-30 18:19 45.72342 134.68282 36767 ft 458 kts 30°
2026-04-30 18:19 45.74908 134.70921 36355 ft 450 kts 31°
2026-04-30 18:19 45.77425 134.73529 36694 ft 445 kts 30°
2026-04-30 18:20 45.79931 134.76106 36562 ft 448 kts 30°
2026-04-30 18:20 45.84972 134.81319 36578 ft 445 kts 30°
2026-04-30 18:21 45.89809 134.86714 36561 ft 447 kts 41°
2026-04-30 18:21 45.93767 134.93652 36572 ft 447 kts 48°
2026-04-30 18:22 45.97539 135.00684 36554 ft 444 kts 49°
2026-04-30 18:22 46.03090 135.11195 36532 ft 438 kts 49°
2026-04-30 18:23 46.06729 135.18109 36524 ft 433 kts 49°
2026-04-30 18:23 46.10328 135.24971 36508 ft 428 kts 49°
2026-04-30 18:24 46.15627 135.35094 36473 ft 421 kts 49°
2026-04-30 18:24 46.17408 135.38498 36085 ft 434 kts 49°
2026-04-30 18:25 46.19248 135.42024 35653 ft 446 kts 49°
2026-04-30 18:25 46.24854 135.52812 35628 ft 453 kts 49°
2026-04-30 18:26 46.30566 135.63838 35626 ft 461 kts 49°
2026-04-30 18:27 46.36353 135.75003 35616 ft 468 kts 49°
2026-04-30 18:28 46.42457 135.86183 35617 ft 477 kts 49°
2026-04-30 18:28 46.48654 135.97598 35622 ft 487 kts 49°
2026-04-30 18:29 46.57147 136.13321 35623 ft 503 kts 49°
2026-04-30 18:30 46.65811 136.29459 35615 ft 509 kts 49°
2026-04-30 18:31 46.72319 136.41638 35618 ft 508 kts 49°
2026-04-30 18:32 46.78796 136.53821 35618 ft 509 kts 49°
2026-04-30 18:33 46.85289 136.66080 35618 ft 509 kts 50°
2026-04-30 18:33 46.89592 136.74232 35724 ft 511 kts 50°
2026-04-30 18:33 46.91758 136.78343 35853 ft 510 kts 50°
2026-04-30 18:34 46.93912 136.82445 35964 ft 510 kts 50°
2026-04-30 18:34 46.98215 136.90640 36100 ft 511 kts 50°
2026-04-30 18:35 47.02520 136.98875 36200 ft 512 kts 51°
2026-04-30 18:35 47.06843 137.07169 36278 ft 514 kts 51°
2026-04-30 18:36 47.11182 137.15524 36411 ft 515 kts 51°
2026-04-30 18:36 47.13339 137.19687 36456 ft 516 kts 51°
2026-04-30 18:36 47.17683 137.28084 36564 ft 517 kts 51°
2026-04-30 18:37 47.19840 137.32263 36613 ft 517 kts 51°
2026-04-30 18:37 47.24178 137.40683 36617 ft 517 kts 51°
2026-04-30 18:38 47.28497 137.49097 36617 ft 517 kts 51°
2026-04-30 18:38 47.32830 137.57564 36618 ft 517 kts 51°
2026-04-30 18:39 47.37125 137.65979 36617 ft 518 kts 52°
2026-04-30 18:39 47.41436 137.74452 36613 ft 517 kts 52°
2026-04-30 18:40 47.45742 137.82942 36613 ft 517 kts 52°
2026-04-30 18:40 47.50053 137.91470 36614 ft 518 kts 52°
2026-04-30 18:41 47.54341 137.99977 36614 ft 517 kts 52°
2026-04-30 18:41 47.58616 138.08484 36616 ft 518 kts 52°
2026-04-30 18:42 47.62904 138.17046 36616 ft 518 kts 52°
2026-04-30 18:42 47.69310 138.29883 36617 ft 518 kts 52°
2026-04-30 18:45 47.90589 138.72969 36932 ft 521 kts 53°
2026-04-30 18:45 47.92715 138.77312 36969 ft 521 kts 53°
2026-04-30 18:46 47.96977 138.86038 37040 ft 522 kts 53°
2026-04-30 18:46 48.01262 138.94838 37128 ft 523 kts 53°
2026-04-30 18:47 48.05522 139.03616 37192 ft 524 kts 53°
2026-04-30 18:47 48.09755 139.12370 37069 ft 508 kts 53°
2026-04-30 18:48 48.13893 139.20946 37091 ft 509 kts 53°
2026-04-30 18:48 48.18034 139.29562 37100 ft 511 kts 53°
2026-04-30 18:49 48.22154 139.38165 37007 ft 502 kts 53°
2026-04-30 18:49 48.26233 139.46703 37020 ft 503 kts 53°
2026-04-30 18:50 48.30257 139.55154 37035 ft 505 kts 53°
2026-04-30 18:50 48.34359 139.63794 37055 ft 507 kts 53°
2026-04-30 18:51 48.38453 139.72444 37056 ft 510 kts 53°
2026-04-30 18:51 48.42594 139.81227 37057 ft 512 kts 53°
2026-04-30 18:52 48.46734 139.90031 37061 ft 515 kts 53°
2026-04-30 18:52 48.50897 139.98903 37071 ft 521 kts 53°
2026-04-30 18:53 48.55097 140.07890 37066 ft 523 kts 53°
2026-04-30 18:53 48.59259 140.16899 37066 ft 523 kts 57°
2026-04-30 18:54 48.62606 140.26708 37073 ft 524 kts 63°
2026-04-30 18:54 48.65776 140.36665 37069 ft 524 kts 64°
2026-04-30 18:55 48.68912 140.46629 37069 ft 524 kts 64°
2026-04-30 18:55 48.73607 140.61583 37071 ft 524 kts 64°
2026-04-30 18:56 48.78304 140.76617 37066 ft 524 kts 65°
2026-04-30 18:57 48.82976 140.91672 37067 ft 524 kts 64°
2026-04-30 18:57 48.86076 141.01703 37067 ft 526 kts 64°
2026-04-30 18:58 48.90728 141.16844 37071 ft 527 kts 64°
2026-04-30 18:59 48.95379 141.32068 37070 ft 527 kts 64°
2026-04-30 19:00 49.01549 141.52416 37070 ft 528 kts 64°
2026-04-30 19:01 49.07730 141.72836 37063 ft 530 kts 65°
2026-04-30 19:02 49.12359 141.88268 37065 ft 531 kts 64°
2026-04-30 19:03 49.18474 142.08771 37180 ft 532 kts 64°
2026-04-30 19:04 49.24577 142.29427 37182 ft 531 kts 64°
2026-04-30 19:05 49.30651 142.50159 37184 ft 531 kts 64°
2026-04-30 19:06 49.36671 142.70875 37177 ft 532 kts 65°
2026-04-30 19:06 49.41163 142.86467 37183 ft 532 kts 65°
2026-04-30 19:07 49.45670 143.02205 37182 ft 537 kts 65°
2026-04-30 19:08 49.51697 143.23402 37184 ft 538 kts 65°
2026-04-30 19:09 49.56171 143.39269 37186 ft 538 kts 65°
2026-04-30 19:09 49.59137 143.49843 37187 ft 538 kts 65°
2026-04-30 19:10 49.65067 143.71123 37177 ft 538 kts 66°
2026-04-30 19:11 49.69468 143.87053 37181 ft 538 kts 66°
2026-04-30 19:12 49.72398 143.97713 37182 ft 538 kts 66°
2026-04-30 19:12 49.75326 144.08418 37183 ft 538 kts 66°
2026-04-30 19:13 49.81143 144.29831 37186 ft 538 kts 66°
2026-04-30 19:14 49.84018 144.40483 37187 ft 538 kts 66°
2026-04-30 19:14 49.86901 144.51215 37188 ft 538 kts 66°
2026-04-30 19:15 49.89783 144.61999 37189 ft 538 kts 66°
2026-04-30 19:15 49.94076 144.78146 37181 ft 538 kts 66°
2026-04-30 19:16 49.96923 144.88922 37182 ft 538 kts 66°
2026-04-30 19:17 50.01153 145.05046 37183 ft 539 kts 66°
2026-04-30 19:17 50.05396 145.21321 37185 ft 541 kts 65°
2026-04-30 19:18 50.09641 145.37685 37049 ft 540 kts 65°
2026-04-30 19:19 50.12429 145.48511 37044 ft 541 kts 65°
2026-04-30 19:19 50.16632 145.64932 37045 ft 541 kts 65°
2026-04-30 19:20 50.19407 145.75842 37036 ft 541 kts 66°
2026-04-30 19:21 50.23553 145.92244 37037 ft 541 kts 66°
2026-04-30 19:22 50.29051 146.14178 37040 ft 541 kts 66°
2026-04-30 19:23 50.37221 146.47180 37044 ft 541 kts 66°
2026-04-30 19:24 50.41262 146.63684 37045 ft 541 kts 66°
2026-04-30 19:25 50.47959 146.91315 37038 ft 540 kts 67°
2026-04-30 19:26 50.53200 147.13197 37040 ft 529 kts 66°
2026-04-30 19:27 50.57079 147.29513 37042 ft 530 kts 66°
2026-04-30 19:28 50.60926 147.45831 37043 ft 530 kts 66°
2026-04-30 19:29 50.66034 147.67685 37038 ft 530 kts 67°
2026-04-30 19:30 50.71086 147.89528 37037 ft 530 kts 67°
2026-04-30 19:31 50.76114 148.11488 37039 ft 530 kts 67°
2026-04-30 19:31 50.79841 148.27913 37041 ft 530 kts 67°
2026-04-30 19:32 50.82317 148.38901 37042 ft 530 kts 67°
2026-04-30 19:32 50.84792 148.49934 37043 ft 530 kts 67°
2026-04-30 19:33 50.87247 148.60945 37044 ft 530 kts 67°
2026-04-30 19:33 50.89708 148.72020 37034 ft 531 kts 68°
2026-04-30 19:34 50.92141 148.83052 37037 ft 532 kts 68°
2026-04-30 19:35 50.95790 148.99695 37038 ft 531 kts 69°
2026-04-30 19:35 50.98199 149.10765 37039 ft 531 kts 69°
2026-04-30 19:36 51.00618 149.21941 37041 ft 533 kts 69°
2026-04-30 19:36 51.04213 149.38657 37042 ft 535 kts 68°
2026-04-30 19:37 51.06618 149.49905 37043 ft 535 kts 68°
2026-04-30 19:37 51.09000 149.61121 37044 ft 535 kts 68°
2026-04-30 19:38 51.11375 149.72351 37034 ft 535 kts 69°
2026-04-30 19:38 51.13742 149.83621 37037 ft 535 kts 69°
2026-04-30 19:39 51.16098 149.94896 37038 ft 535 kts 69°
2026-04-30 19:39 51.18752 150.05972 37035 ft 531 kts 58°
2026-04-30 19:40 51.22634 150.15884 37013 ft 529 kts 55°
2026-04-30 19:40 51.26319 150.26109 36989 ft 530 kts 57°
2026-04-30 19:41 51.29923 150.36357 36988 ft 530 kts 57°
2026-04-30 19:41 51.33501 150.46616 36989 ft 530 kts 57°
2026-04-30 19:42 51.37065 150.56879 36990 ft 530 kts 57°
2026-04-30 19:42 51.40645 150.67232 36985 ft 530 kts 58°
2026-04-30 19:43 51.44186 150.77518 36983 ft 530 kts 58°
2026-04-30 19:44 51.49505 150.93045 36984 ft 530 kts 58°
2026-04-30 19:44 51.53060 151.03477 36985 ft 531 kts 58°
2026-04-30 19:45 51.56582 151.13856 36986 ft 531 kts 58°
2026-04-30 19:45 51.60125 151.24338 36987 ft 532 kts 58°
2026-04-30 19:46 51.63638 151.34775 36988 ft 532 kts 58°
2026-04-30 19:46 51.67146 151.45244 36989 ft 532 kts 58°
2026-04-30 19:47 51.70622 151.55659 36990 ft 532 kts 58°
2026-04-30 19:47 51.74111 151.66157 36989 ft 532 kts 58°
2026-04-30 19:48 51.77616 151.76747 36983 ft 532 kts 58°
2026-04-30 19:48 51.81073 151.87239 36983 ft 532 kts 58°
2026-04-30 19:49 51.84539 151.97801 36984 ft 532 kts 58°
2026-04-30 19:49 51.89733 152.13715 36986 ft 532 kts 58°
2026-04-30 19:50 51.93169 152.24301 36987 ft 532 kts 58°
2026-04-30 19:50 51.96603 152.34923 36988 ft 532 kts 58°
2026-04-30 19:51 52.00030 152.45573 36989 ft 532 kts 58°
2026-04-30 19:51 52.03447 152.56236 36990 ft 532 kts 58°
2026-04-30 19:52 52.06841 152.66872 36987 ft 533 kts 59°
2026-04-30 19:52 52.10232 152.77544 36983 ft 533 kts 59°
2026-04-30 19:53 52.13630 152.88289 36983 ft 533 kts 59°
2026-04-30 19:53 52.16987 152.98950 36985 ft 533 kts 59°
2026-04-30 19:54 52.20368 153.09735 36986 ft 534 kts 59°
2026-04-30 19:54 52.23744 153.20549 36987 ft 534 kts 59°
2026-04-30 19:55 52.27101 153.31354 36988 ft 534 kts 59°
2026-04-30 19:55 52.30465 153.42227 36989 ft 534 kts 59°
2026-04-30 19:56 52.33788 153.53017 36990 ft 534 kts 59°
2026-04-30 19:56 52.37118 153.63878 36991 ft 534 kts 59°
2026-04-30 19:57 52.40447 153.74783 36982 ft 535 kts 60°
2026-04-30 19:57 52.43759 153.85684 36983 ft 535 kts 60°
2026-04-30 19:58 52.47071 153.96634 36984 ft 535 kts 60°
2026-04-30 19:58 52.50354 154.07539 36985 ft 535 kts 60°
2026-04-30 19:59 52.53642 154.18507 36986 ft 535 kts 60°
2026-04-30 20:00 52.58537 154.34932 36988 ft 535 kts 60°
2026-04-30 20:00 52.61795 154.45929 36989 ft 535 kts 60°
2026-04-30 20:01 52.67907 154.60968 37001 ft 523 kts 42°
2026-04-30 20:01 52.72660 154.70048 36980 ft 525 kts 45°
2026-04-30 20:02 52.79729 154.83862 36983 ft 525 kts 45°
2026-04-30 20:03 52.86778 154.97740 36984 ft 527 kts 45°
2026-04-30 20:03 52.91504 155.07094 36986 ft 528 kts 45°
2026-04-30 20:04 52.96211 155.16446 36986 ft 527 kts 45°
2026-04-30 20:05 53.03258 155.30524 37126 ft 535 kts 44°
2026-04-30 20:05 53.10447 155.44957 37133 ft 543 kts 43°
2026-04-30 20:06 53.15276 155.54684 37135 ft 544 kts 43°
2026-04-30 20:06 53.20104 155.64449 37136 ft 544 kts 43°
2026-04-30 20:07 53.24935 155.74265 37124 ft 545 kts 44°
2026-04-30 20:08 53.32158 155.89020 37125 ft 545 kts 44°
2026-04-30 20:08 53.36946 155.98846 37127 ft 545 kts 44°
2026-04-30 20:09 53.41714 156.08672 37128 ft 544 kts 44°
2026-04-30 20:09 53.48917 156.23585 37130 ft 544 kts 44°
2026-04-30 20:10 53.56050 156.38448 37132 ft 544 kts 44°
2026-04-30 20:11 53.63187 156.53403 37134 ft 544 kts 44°
2026-04-30 20:11 53.67927 156.63386 37136 ft 544 kts 44°
2026-04-30 20:12 53.75013 156.78384 37124 ft 545 kts 45°
2026-04-30 20:13 53.79767 156.88496 37125 ft 545 kts 45°
2026-04-30 20:13 53.84471 156.98546 37127 ft 545 kts 45°
2026-04-30 20:14 53.89180 157.08647 37127 ft 544 kts 45°
2026-04-30 20:14 53.93844 157.18687 37129 ft 542 kts 45°
2026-04-30 20:15 53.98540 157.28844 37130 ft 542 kts 45°
2026-04-30 20:15 54.03178 157.38910 37132 ft 542 kts 45°
2026-04-30 20:16 54.07814 157.49011 37133 ft 543 kts 45°
2026-04-30 20:16 54.12458 157.59180 37136 ft 542 kts 45°
2026-04-30 20:17 54.17117 157.69414 37122 ft 543 kts 46°
2026-04-30 20:17 54.21753 157.79646 37125 ft 543 kts 46°
2026-04-30 20:18 54.26371 157.89880 37126 ft 543 kts 46°
2026-04-30 20:18 54.30978 158.00131 37127 ft 543 kts 46°
2026-04-30 20:19 54.35591 158.10437 37128 ft 543 kts 46°
2026-04-30 20:19 54.40163 158.20694 37130 ft 543 kts 46°
2026-04-30 20:20 54.44752 158.31030 37132 ft 543 kts 46°
2026-04-30 20:20 54.49353 158.41434 37011 ft 544 kts 46°
2026-04-30 20:21 54.53913 158.51796 37017 ft 544 kts 46°
2026-04-30 20:21 54.58468 158.62187 37020 ft 543 kts 46°
2026-04-30 20:22 54.63040 158.72656 37008 ft 544 kts 47°
2026-04-30 20:22 54.67561 158.83063 37009 ft 544 kts 46°
2026-04-30 20:23 54.72115 158.93581 37011 ft 545 kts 46°
2026-04-30 20:23 54.76653 159.04111 37012 ft 545 kts 46°
2026-04-30 20:24 54.81180 159.14659 37013 ft 545 kts 46°
2026-04-30 20:24 54.85673 159.25169 37014 ft 545 kts 46°
2026-04-30 20:25 54.92436 159.41064 37015 ft 539 kts 47°
2026-04-30 20:26 54.99013 159.56632 37016 ft 528 kts 48°
2026-04-30 20:26 55.05460 159.71988 37006 ft 520 kts 50°
2026-04-30 20:27 55.13991 159.92476 37011 ft 521 kts 49°
2026-04-30 20:28 55.21862 160.13798 37019 ft 529 kts 64°
2026-04-30 20:29 55.23734 160.26318 37022 ft 535 kts 82°
2026-04-30 20:30 55.23655 160.45927 37019 ft 536 kts 85°
2026-04-30 20:31 55.25482 160.84970 37011 ft 535 kts 84°
2026-04-30 20:32 55.27020 161.17325 37014 ft 533 kts 84°
2026-04-30 20:33 55.27868 161.36726 37015 ft 533 kts 84°
2026-04-30 20:34 55.28656 161.56195 37017 ft 533 kts 84°
2026-04-30 20:35 55.29414 161.75731 37009 ft 533 kts 85°
2026-04-30 20:35 55.30136 161.95181 37011 ft 533 kts 85°
2026-04-30 20:36 55.30603 162.08197 37012 ft 533 kts 85°
2026-04-30 20:37 55.31276 162.27745 37014 ft 533 kts 85°
2026-04-30 20:37 55.31710 162.40816 37015 ft 533 kts 85°
2026-04-30 20:38 55.32126 162.53836 37016 ft 533 kts 85°
2026-04-30 20:38 55.32529 162.66829 37014 ft 533 kts 86°
2026-04-30 20:39 55.33183 162.86301 37010 ft 533 kts 84°
2026-04-30 20:40 55.36058 163.04958 37020 ft 525 kts 58°
2026-04-30 20:40 55.40222 163.15231 37021 ft 514 kts 42°
2026-04-30 20:41 55.46669 163.30508 37013 ft 521 kts 52°
2026-04-30 20:41 55.50629 163.41222 37015 ft 521 kts 53°
2026-04-30 20:42 55.54533 163.51939 37016 ft 521 kts 53°
2026-04-30 20:43 55.60391 163.68132 37010 ft 521 kts 54°
2026-04-30 20:43 55.64283 163.78950 37010 ft 522 kts 54°
2026-04-30 20:44 55.70073 163.95138 37011 ft 521 kts 54°
2026-04-30 20:45 55.77793 164.16895 37013 ft 521 kts 54°
2026-04-30 20:45 55.81632 164.27783 37013 ft 521 kts 54°
2026-04-30 20:46 55.89305 164.49698 37015 ft 521 kts 54°
2026-04-30 20:47 55.95032 164.66177 37015 ft 522 kts 54°
2026-04-30 20:48 56.00774 164.82797 37010 ft 522 kts 54°
2026-04-30 20:48 56.04580 164.93791 37011 ft 522 kts 54°
2026-04-30 20:49 56.08405 165.04890 37011 ft 521 kts 54°
2026-04-30 20:50 56.14074 165.21440 37013 ft 521 kts 54°
2026-04-30 20:50 56.17858 165.32552 37014 ft 520 kts 54°
2026-04-30 20:51 56.21618 165.43645 37015 ft 520 kts 54°
2026-04-30 20:51 56.27246 165.60338 37016 ft 521 kts 54°
2026-04-30 20:52 56.30979 165.71472 37008 ft 522 kts 56°
2026-04-30 20:53 56.36589 165.88315 37011 ft 522 kts 56°
2026-04-30 20:53 56.40302 165.99521 37012 ft 522 kts 56°
2026-04-30 20:54 56.45865 166.16415 37013 ft 522 kts 56°
2026-04-30 20:55 56.51391 166.33313 37014 ft 522 kts 56°
2026-04-30 20:55 56.55096 166.44710 36877 ft 522 kts 56°
2026-04-30 20:56 56.58763 166.56045 36718 ft 521 kts 56°
2026-04-30 20:56 56.60597 166.61737 36670 ft 520 kts 56°
2026-04-30 20:57 56.66081 166.78828 36668 ft 521 kts 56°
2026-04-30 20:57 56.69718 166.90227 36668 ft 521 kts 56°
2026-04-30 20:58 56.75167 167.07413 36669 ft 521 kts 57°
2026-04-30 20:58 56.78766 167.18840 36669 ft 521 kts 57°
2026-04-30 20:59 56.84178 167.36119 36673 ft 521 kts 57°
2026-04-30 21:00 56.91348 167.59210 36675 ft 520 kts 57°
2026-04-30 21:01 56.96679 167.76521 36669 ft 521 kts 58°
2026-04-30 21:02 57.01987 167.93866 36668 ft 514 kts 59°
2026-04-30 21:02 57.05438 168.05229 36670 ft 509 kts 59°
2026-04-30 21:03 57.08869 168.16580 36670 ft 504 kts 59°
2026-04-30 21:03 57.12246 168.27808 36670 ft 498 kts 60°
2026-04-30 21:04 57.15604 168.39033 36671 ft 498 kts 60°
2026-04-30 21:04 57.20606 168.55847 36671 ft 499 kts 60°
2026-04-30 21:05 57.23939 168.67110 36670 ft 499 kts 61°
2026-04-30 21:05 57.27269 168.78422 36669 ft 499 kts 61°
2026-04-30 21:06 57.30582 168.89729 36669 ft 499 kts 61°
2026-04-30 21:06 57.33833 169.00879 37137 ft 489 kts 61°
2026-04-30 21:07 57.37088 169.12099 37113 ft 499 kts 61°
2026-04-30 21:07 57.40390 169.23534 37100 ft 498 kts 61°
2026-04-30 21:08 57.43649 169.34876 37100 ft 498 kts 61°
2026-04-30 21:08 57.46900 169.46246 37101 ft 498 kts 61°
2026-04-30 21:09 57.50124 169.57575 37101 ft 498 kts 61°
2026-04-30 21:09 57.53363 169.69016 37099 ft 498 kts 62°
2026-04-30 21:10 57.56576 169.80423 37099 ft 498 kts 62°
2026-04-30 21:10 57.59794 169.91901 37099 ft 498 kts 62°
2026-04-30 21:11 57.62979 170.03320 37100 ft 498 kts 62°
2026-04-30 21:11 57.66179 170.14850 37100 ft 498 kts 62°
2026-04-30 21:12 57.69352 170.26341 37100 ft 498 kts 62°
2026-04-30 21:12 57.72534 170.37923 37101 ft 498 kts 62°
2026-04-30 21:13 57.75694 170.49484 37101 ft 498 kts 62°
2026-04-30 21:13 57.78828 170.61006 37101 ft 498 kts 62°
2026-04-30 21:14 57.81983 170.72664 37099 ft 498 kts 63°
2026-04-30 21:14 57.85101 170.84248 37099 ft 498 kts 63°
2026-04-30 21:15 57.88224 170.95900 37100 ft 498 kts 63°
2026-04-30 21:15 57.91331 171.07555 37100 ft 496 kts 63°
2026-04-30 21:16 57.94401 171.19145 37112 ft 495 kts 63°
2026-04-30 21:16 57.97465 171.30769 37139 ft 495 kts 63°
2026-04-30 21:17 58.00520 171.42418 37149 ft 495 kts 63°
2026-04-30 21:17 58.03558 171.54059 37163 ft 495 kts 63°
2026-04-30 21:18 58.06587 171.65726 37185 ft 495 kts 64°
2026-04-30 21:18 58.09613 171.77441 37183 ft 495 kts 64°
2026-04-30 21:19 58.12632 171.89194 37181 ft 495 kts 64°
2026-04-30 21:19 58.15630 172.00922 37181 ft 495 kts 64°
2026-04-30 21:20 58.18616 172.12669 37181 ft 495 kts 64°
2026-04-30 21:20 58.21605 172.24486 37182 ft 495 kts 64°
2026-04-30 21:21 58.24578 172.36307 37182 ft 495 kts 64°
2026-04-30 21:22 58.28988 172.53960 37163 ft 497 kts 64°
2026-04-30 21:22 58.33402 172.71764 36874 ft 493 kts 65°
2026-04-30 21:23 58.34862 172.77690 36878 ft 494 kts 65°
2026-04-30 21:23 58.39239 172.95531 36876 ft 494 kts 65°
2026-04-30 21:24 58.42123 173.07375 36876 ft 492 kts 66°
2026-04-30 21:24 58.45008 173.19295 36877 ft 493 kts 66°
2026-04-30 21:25 58.49311 173.37183 36877 ft 492 kts 65°
2026-04-30 21:26 58.53568 173.55029 36878 ft 492 kts 65°
2026-04-30 21:27 58.57831 173.73045 36876 ft 493 kts 66°
2026-04-30 21:27 58.60634 173.84975 36877 ft 493 kts 66°
2026-04-30 21:28 58.64846 174.03030 36877 ft 493 kts 66°
2026-04-30 21:29 58.69013 174.21040 36878 ft 492 kts 66°
2026-04-30 21:30 58.75930 174.51273 36878 ft 493 kts 66°
2026-04-30 21:31 58.82756 174.81537 36877 ft 492 kts 67°
2026-04-30 21:32 58.86824 174.99783 36878 ft 492 kts 68°
2026-04-30 21:32 58.89521 175.11948 36878 ft 488 kts 68°
2026-04-30 21:33 58.93483 175.29987 36879 ft 486 kts 68°
2026-04-30 21:34 58.96120 175.42079 36879 ft 485 kts 68°
2026-04-30 21:34 59.00051 175.60225 36879 ft 485 kts 69°
2026-04-30 21:35 59.02637 175.72253 36879 ft 484 kts 70°
2026-04-30 21:35 59.05230 175.84386 36879 ft 484 kts 70°
2026-04-30 21:36 59.07797 175.96469 36880 ft 484 kts 70°
2026-04-30 21:37 59.12905 176.20720 36875 ft 484 kts 70°
2026-04-30 21:37 59.15454 176.32932 36874 ft 483 kts 70°
2026-04-30 21:38 59.17963 176.45020 36875 ft 483 kts 70°
2026-04-30 21:38 59.20488 176.57260 36875 ft 483 kts 70°
2026-04-30 21:39 59.22988 176.69450 36875 ft 483 kts 71°
2026-04-30 21:39 59.25468 176.81621 36875 ft 483 kts 71°
2026-04-30 21:40 59.27948 176.93861 36876 ft 482 kts 71°
2026-04-30 21:40 59.30405 177.06061 36875 ft 480 kts 71°
2026-04-30 21:41 59.32842 177.18243 36876 ft 479 kts 71°
2026-04-30 21:41 59.35265 177.30418 36876 ft 479 kts 71°
2026-04-30 21:42 59.37682 177.42645 36876 ft 479 kts 71°
2026-04-30 21:42 59.40008 177.54486 36876 ft 480 kts 71°
2026-04-30 21:43 59.42007 177.64712 36876 ft 480 kts 71°
2026-04-30 21:43 59.44783 177.79004 36877 ft 479 kts 71°
2026-04-30 21:44 59.47156 177.91307 36877 ft 479 kts 71°
2026-04-30 21:44 59.49503 178.03552 36877 ft 479 kts 71°
2026-04-30 21:45 59.51853 178.15889 36877 ft 479 kts 71°
2026-04-30 21:45 59.54172 178.28145 36877 ft 479 kts 71°
2026-04-30 21:46 59.56501 178.40524 36877 ft 479 kts 71°
2026-04-30 21:46 59.58806 178.52858 36877 ft 479 kts 71°
2026-04-30 21:47 59.61106 178.65245 36877 ft 479 kts 72°
2026-04-30 21:47 59.63384 178.77593 36877 ft 479 kts 72°
2026-04-30 21:48 59.65657 178.90006 36877 ft 476 kts 72°
2026-04-30 21:48 59.67888 179.02263 36877 ft 473 kts 72°
2026-04-30 21:49 59.70110 179.14534 36877 ft 473 kts 72°
2026-04-30 21:49 59.72319 179.26814 36877 ft 473 kts 72°
2026-04-30 21:50 59.74527 179.39182 36877 ft 473 kts 72°
2026-04-30 21:50 59.76699 179.51445 36877 ft 473 kts 72°
2026-04-30 21:51 59.78873 179.63794 36876 ft 473 kts 72°
2026-04-30 21:51 59.81040 179.76193 36877 ft 473 kts 72°
2026-04-30 21:52 59.83182 179.88535 36877 ft 473 kts 72°
2026-04-30 21:52 59.85318 -179.99078 36875 ft 473 kts 72°
2026-04-30 21:53 59.86388 -179.92844 36473 ft 473 kts 72°
2026-04-30 21:53 59.87437 -179.86706 36499 ft 465 kts 72°
2026-04-30 21:53 59.89513 -179.74498 36499 ft 468 kts 72°
2026-04-30 21:54 59.91598 -179.62160 36497 ft 469 kts 72°
2026-04-30 21:54 59.93670 -179.49817 36499 ft 468 kts 73°
2026-04-30 21:55 59.95720 -179.37518 36592 ft 467 kts 73°
2026-04-30 21:55 59.97763 -179.25176 36732 ft 469 kts 73°
2026-04-30 21:56 59.99812 -179.12712 36781 ft 469 kts 73°
2026-04-30 21:56 60.01829 -179.00360 36792 ft 469 kts 73°
2026-04-30 21:57 60.03846 -178.87915 36791 ft 469 kts 73°
2026-04-30 21:57 60.05840 -178.75532 36790 ft 469 kts 73°
2026-04-30 21:58 60.07832 -178.63078 36789 ft 469 kts 73°
2026-04-30 21:58 60.09806 -178.50629 36792 ft 468 kts 73°
2026-04-30 21:59 60.11782 -178.38097 36790 ft 469 kts 74°
2026-04-30 22:00 60.14708 -178.19365 36789 ft 468 kts 74°
2026-04-30 22:00 60.17604 -178.00619 36788 ft 469 kts 74°
2026-04-30 22:01 60.19315 -177.88028 36784 ft 467 kts 82°
2026-04-30 22:01 60.20245 -177.75078 36785 ft 467 kts 83°
2026-04-30 22:02 60.21109 -177.62118 36786 ft 467 kts 83°
2026-04-30 22:02 60.21939 -177.49199 36786 ft 467 kts 83°
2026-04-30 22:03 60.22756 -177.36226 36787 ft 467 kts 83°
2026-04-30 22:03 60.23558 -177.23253 36789 ft 467 kts 84°
2026-04-30 22:04 60.24352 -177.10219 36791 ft 467 kts 84°
2026-04-30 22:05 60.25520 -176.90685 36784 ft 470 kts 85°
2026-04-30 22:05 60.26286 -176.77534 36789 ft 471 kts 85°
2026-04-30 22:06 60.27036 -176.64406 36787 ft 471 kts 85°
2026-04-30 22:06 60.28138 -176.44781 36788 ft 471 kts 85°
2026-04-30 22:07 60.28859 -176.31624 36786 ft 471 kts 86°
2026-04-30 22:07 60.29565 -176.18510 36791 ft 470 kts 86°
2026-04-30 22:08 60.30259 -176.05354 36787 ft 470 kts 86°
2026-04-30 22:08 60.30938 -175.92233 36788 ft 469 kts 86°
2026-04-30 22:09 60.31603 -175.79132 36790 ft 470 kts 86°
2026-04-30 22:09 60.32258 -175.65964 36786 ft 471 kts 85°
2026-04-30 22:10 60.32899 -175.52838 36789 ft 470 kts 85°
2026-04-30 22:10 60.33525 -175.39737 36787 ft 470 kts 85°
2026-04-30 22:11 60.34444 -175.19965 36788 ft 470 kts 86°
2026-04-30 22:12 60.35039 -175.06782 36782 ft 467 kts 86°
2026-04-30 22:12 60.35611 -174.93797 36788 ft 463 kts 86°
2026-04-30 22:13 60.36175 -174.80844 36791 ft 464 kts 86°
2026-04-30 22:13 60.36726 -174.67798 36787 ft 464 kts 86°
2026-04-30 22:14 60.37264 -174.54810 36785 ft 464 kts 86°
2026-04-30 22:14 60.37790 -174.41746 36783 ft 464 kts 86°
2026-04-30 22:15 60.38300 -174.28761 36787 ft 463 kts 86°
2026-04-30 22:15 60.38796 -174.15767 36790 ft 463 kts 86°
2026-04-30 22:16 60.39284 -174.02754 36795 ft 465 kts 87°
2026-04-30 22:17 60.40221 -173.76636 36794 ft 463 kts 86°
2026-04-30 22:17 60.40889 -173.57053 36785 ft 464 kts 86°
2026-04-30 22:18 60.41527 -173.37492 36793 ft 463 kts 86°
2026-04-30 22:19 60.42138 -173.17859 36792 ft 463 kts 88°
2026-04-30 22:20 60.42718 -172.98261 36786 ft 462 kts 87°
2026-04-30 22:20 60.43272 -172.78784 36782 ft 459 kts 88°
2026-04-30 22:21 60.43621 -172.65820 36784 ft 459 kts 88°
2026-04-30 22:21 60.43954 -172.52856 36791 ft 460 kts 88°
2026-04-30 22:22 60.44282 -172.39925 36786 ft 459 kts 88°
2026-04-30 22:22 60.44590 -172.26985 36794 ft 459 kts 89°
2026-04-30 22:23 60.44888 -172.14058 36786 ft 458 kts 89°
2026-04-30 22:23 60.45176 -172.01053 36790 ft 459 kts 89°
2026-04-30 22:24 60.45448 -171.88194 36789 ft 459 kts 89°
2026-04-30 22:24 60.45709 -171.75221 36783 ft 459 kts 89°
2026-04-30 22:25 60.45958 -171.62320 36755 ft 458 kts 89°
2026-04-30 22:25 60.46191 -171.49406 36748 ft 458 kts 89°
2026-04-30 22:26 60.46522 -171.30017 36758 ft 459 kts 90°
2026-04-30 22:27 60.46727 -171.17081 36755 ft 459 kts 89°
2026-04-30 22:27 60.47012 -170.97710 36759 ft 460 kts 89°
2026-04-30 22:28 60.47266 -170.78191 36766 ft 461 kts 90°
2026-04-30 22:29 60.47564 -170.52281 36766 ft 462 kts 90°
2026-04-30 22:31 60.47966 -170.06749 36781 ft 461 kts 90°
2026-04-30 22:32 60.48157 -169.74190 36781 ft 462 kts 90°
2026-04-30 22:33 60.48270 -169.41678 36776 ft 461 kts 90°
2026-04-30 22:34 60.48299 -169.22081 36674 ft 462 kts 91°
2026-04-30 22:35 60.48305 -169.09093 36643 ft 461 kts 91°
2026-04-30 22:36 60.48258 -168.76463 36642 ft 463 kts 91°
2026-04-30 22:37 60.48163 -168.50334 36642 ft 462 kts 91°
2026-04-30 22:38 60.48017 -168.24115 36640 ft 463 kts 92°
2026-04-30 22:39 60.47874 -168.04504 36642 ft 463 kts 92°
2026-04-30 22:40 60.47503 -167.65358 36641 ft 462 kts 92°
2026-04-30 22:41 60.47104 -167.32646 36641 ft 462 kts 93°
2026-04-30 22:43 60.46521 -166.93457 36643 ft 463 kts 93°
2026-04-30 22:44 60.46066 -166.67242 36640 ft 465 kts 93°
2026-04-30 22:45 60.45284 -166.27814 36640 ft 465 kts 94°
2026-04-30 22:47 60.43868 -165.88600 36593 ft 463 kts 102°
2026-04-30 22:48 60.41025 -165.63171 36593 ft 463 kts 104°
2026-04-30 22:49 60.36403 -165.25102 36594 ft 462 kts 105°
2026-04-30 22:51 60.31690 -164.87321 36591 ft 461 kts 106°
2026-04-30 22:52 60.29281 -164.68424 36593 ft 461 kts 106°
2026-04-30 22:53 60.26038 -164.43315 36553 ft 461 kts 106°
2026-04-30 22:53 60.23581 -164.24570 36537 ft 461 kts 107°
2026-04-30 22:55 60.19430 -163.93394 36527 ft 460 kts 107°
2026-04-30 22:56 60.16070 -163.68610 36527 ft 459 kts 107°
2026-04-30 22:57 60.11795 -163.37624 36525 ft 457 kts 107°
2026-04-30 22:58 60.08356 -163.13109 36526 ft 455 kts 108°
2026-04-30 22:59 60.03131 -162.76617 36553 ft 451 kts 109°